sat.trackr.live / text

‹ back to catalog

STARLINK-36946

NORAD 68382 · 2026-063C

PAYLOAD ACTIVE UNKNOWN

§ Identity

Operator
Country
US
Launch date
2026-03-26
Launch site
AFWTR
Launch vehicle
Mass (kg)
RCS (m²)

Purposes: comms

External: N2YO · Heavens-Above · Gunter

§ Orbital elements

Epoch: 2026-09-19T22:13:16.502016Z

Period
93.91 min
Inclination
97.2856°
Eccentricity
0.0000752
Mean motion
15.33447529 rev/d
Perigee alt
465.0 km
Apogee alt
466.1 km
Semi-major
6,843.7 km
B*
4.8160e-4
RAAN
43.8406°
Arg perigee
119.9625°
Mean anomaly
240.1692°
Rev number
2,766

§ Raw data

STARLINK-369461 68382U 26063C   26262.92588544  .00015506  00000+0  48160-3 0  99952 68382  97.2856  43.8406 0000752 119.9625 240.1692 15.33447529 27666

JSON: /api/v1/satellites/68382 · /tle

For live sub-satellite position, see the globe view (requires WebGL).

§ Visibility from observer

Set your observer location to see the next 7 days of passes ≥ 10°. The values pass through the URL so the page stays shareable.

No JS? Fill the form by hand. The geolocation button needs JavaScript.